Location: *
(35.8942°N, 23.3025°E)
Time: 23:40:32
(UTC+00:00)

Cosmos 1943 - Pass Details

Date: 21 September 2021
Orbit: 833 x 849 km, 71.0° (Epoch: 22 October)

Event Time Altitude Azimuth Distance (km) Brightness Sun altitude
Rises 03:34:09 0° 185° (S) 3,394 6.2 -8.9°
Reaches altitude 10° 03:36:39 10° 180° (S) 2,464 5.6 -8.4°
Maximum altitude 03:42:06 51° 106° (ESE) 1,065 4.3 -7.3°
Drops below altitude 10° 03:47:35 10° 32° (NNE) 2,479 6.2 -6.2°
Sets 03:50:06 0° 28° (NNE) 3,417 6.9 -5.7°
